Volver al catálogo

JILIN-1 GAOFEN 06A 03 XING

ActivoCienciaSSO
NORAD 57014·PAYLOAD·🇨🇳 China
Este nombre de satélite aún no ha sido confirmado por fuentes oficiales.

Lanzado Jun 15, 2023 desde Taiyuan Satellite Launch Center

Loading…

Próximos Pases (próximas 24 horas)

TLE

ActualizadoSource: Space-Track

Época: Sep 14, 2026, 14:00 UTC

1 57014U 23085L   26257.58351903  .00011316  00000-0  34918-3 0  9991
2 57014  97.5031   9.5735 0005664  89.6953 270.4938 15.33725898180311

Sigue JILIN-1 GAOFEN 06A 03 XING en tiempo real con AllMySat

Download on the App Store